This is the latest recevied weather packets stored in our database for station/object SR5MRF. If no packets are shown the sender has not sent any weather packets the latest 10 day(s).
| Time | Temp. | Humidity | Pressure | Rain* | Wind** | Luminosity | Snow |
|---|---|---|---|---|---|---|---|
| 1778053119 | 27.78° C | 38% | 1002.6 hPa | 0 mm | - | - | - |
| 1778052699 | 26.67° C | 39% | 1002.7 hPa | 0 mm | - | - | - |
| 1778052520 | 26.11° C | 40% | 1002.7 hPa | 0 mm | - | - | - |
| 1778052279 | 26.11° C | 40% | 1002.8 hPa | 0 mm | - | - | - |
| 1778051920 | 25.56° C | 41% | 1003 hPa | 0 mm | - | - | - |
| 1778051859 | 25.56° C | 42% | 1002.9 hPa | 0 mm | - | - | - |
| 1778051439 | 25° C | 43% | 1002.8 hPa | 0 mm | - | - | - |
| 1778051320 | 24.44° C | 43% | 1003 hPa | 0 mm | - | - | - |
| 1778051019 | 24.44° C | 44% | 1003.1 hPa | 0 mm | - | - | - |
| 1778050720 | 23.89° C | 45% | 1002.9 hPa | 0 mm | - | - | - |
| 1778050600 | 23.89° C | 46% | 1003.1 hPa | 0 mm | - | - | - |
| 1778050179 | 23.33° C | 47% | 1003 hPa | 0 mm | - | - | - |
| 1778050121 | 23.33° C | 47% | 1002.9 hPa | 0 mm | - | - | - |
| 1778049759 | 22.78° C | 48% | 1002.8 hPa | 0 mm | - | - | - |
| 1778049520 | 22.78° C | 48% | 1003.1 hPa | 0 mm | - | - | - |
| 1778049339 | 22.78° C | 48% | 1003.1 hPa | 0 mm | - | - | - |
| 1778048920 | 22.78° C | 49% | 1003.3 hPa | 0 mm | - | - | - |
| 1778048499 | 22.22° C | 52% | 1003.2 hPa | 0 mm | - | - | - |
| 1778048320 | 22.22° C | 52% | 1003.1 hPa | 0 mm | - | - | - |
| 1778048079 | 21.67° C | 53% | 1003.3 hPa | 0 mm | - | - | - |
| 1778047720 | 20.56° C | 56% | 1003.4 hPa | 0 mm | - | - | - |
| 1778047659 | 20.56° C | 56% | 1003.4 hPa | 0 mm | - | - | - |
| 1778047240 | 19.44° C | 60% | 1003.3 hPa | 0 mm | - | - | - |
| 1778047120 | 18.89° C | 61% | 1003.3 hPa | 0 mm | - | - | - |
| 1778046819 | 18.33° C | 63% | 1003.3 hPa | 0 mm | - | - | - |
* Rain latest hour (hover to see other rain measurements)
** Current wind speed in m/s (hover to see current wind gust speed)